Weather History for KEYW - February, 2014

Change the Weather History Date:

Wednesday, February 19, 2014

  Actual Average Record
Temperature  
Mean Temperature 75 °F 71 °F  
Max Temperature 79 °F 76 °F 84 °F (1990)
Min Temperature 71 °F 66 °F 50 °F (1996)
Degree Days  
Heating Degree Days 0 1  
Month to date heating degree days 0 16  
Since 1 July heating degree days 22 67  
Cooling Degree Days 10 7  
Month to date cooling degree days 171 120  
Year to date cooling degree days 328 285  
Growing Degree Days 25 (Base 50)    
Moisture  
Dew Point 66 °F    
Average Humidity 73    
Maximum Humidity 84    
Minimum Humidity 62    
Precipitation  
Precipitation 0.00 in 0.05 in 2.06 in (1931)
Month to date precipitation 0.75 0.95  
Year to date precipitation 7.43 2.99  
Snow  
Snow 0.00 in - - ()
Month to date snowfall 0.0  
Since 1 July snowfall 0.0  
Snow Depth 0.00 in    
Sea Level Pressure  
Sea Level Pressure 30.11 in    
Wind  
Wind Speed 13 mph (ESE)    
Max Wind Speed 18 mph    
Max Gust Speed 26 mph    
Visibility 10 miles    
Events      
T = Trace of Precipitation, MM = Missing Value Source: NWS Daily Summary

Daily Weather History Graph

Daily Weather History Graph

Search for Another Location

Airport or City:

Trip Planner

Search our weather history database for the weather conditions in past years. The results will help you decide how hot, cold, wet, or windy it might be!

Date:

Astronomy

Feb. 19, 2014 Rise Set
Actual Time 6:57 AM EST 6:24 PM EST
Civil Twilight 6:34 AM EST 6:47 PM EST
Nautical Twilight 6:08 AM EST 7:13 PM EST
Astronomical Twilight 5:41 AM EST 7:40 PM EST
Moon 10:40 PM EST (2/19) 9:35 AM EST (2/19)
Length of Visible Light 12h 12m
Length of Day
11h 26m
Waning Gibbous, 80% of the Moon is Illuminated
Feb 19
Waning Gibbous
Feb 22
Last Quarter
Mar 1
New
Mar 8
First Quarter
Mar 16
Full

Hourly Weather History & Observations

Time (EST) Temp. Dew Point Humidity Pressure Visibility Wind Dir Wind Speed Gust Speed Precip Events Conditions
12:53 AM 72.0 °F 66.0 °F 81% 30.13 in 10.0 mi ENE 6.9 mph - N/A   Scattered Clouds
1:53 AM 73.0 °F 66.0 °F 79% 30.12 in 10.0 mi East 8.1 mph - N/A   Clear
2:53 AM 73.9 °F 64.9 °F 73% 30.09 in 10.0 mi East 13.8 mph - N/A   Scattered Clouds
3:53 AM 73.0 °F 64.0 °F 73% 30.09 in 10.0 mi ESE 15.0 mph - N/A   Clear
4:53 AM 73.0 °F 63.0 °F 71% 30.09 in 10.0 mi ESE 17.3 mph - N/A   Clear
5:53 AM 73.0 °F 63.0 °F 71% 30.11 in 10.0 mi ESE 13.8 mph - N/A   Partly Cloudy
6:53 AM 73.0 °F 64.0 °F 73% 30.12 in 10.0 mi ESE 12.7 mph - N/A   Scattered Clouds
7:53 AM 73.9 °F 64.0 °F 71% 30.13 in 10.0 mi ESE 15.0 mph - N/A   Clear
8:53 AM 75.0 °F 64.9 °F 71% 30.14 in 10.0 mi ESE 15.0 mph - N/A   Mostly Cloudy
9:53 AM 77.0 °F 64.9 °F 66% 30.15 in 10.0 mi ESE 13.8 mph - N/A   Partly Cloudy
10:27 AM 78.1 °F 66.9 °F 68% 30.15 in 2.5 mi ESE 13.8 mph - N/A   Haze
10:34 AM 77.0 °F 66.0 °F 69% 30.15 in 10.0 mi ESE 15.0 mph - N/A   Scattered Clouds
10:53 AM 78.1 °F 64.9 °F 64% 30.15 in 10.0 mi ESE 12.7 mph - N/A   Partly Cloudy
11:53 AM 79.0 °F 66.0 °F 64% 30.14 in 10.0 mi ESE 13.8 mph - N/A   Scattered Clouds
12:53 PM 79.0 °F 66.0 °F 64% 30.13 in 10.0 mi East 10.4 mph - N/A   Clear
1:53 PM 78.1 °F 66.0 °F 66% 30.10 in 10.0 mi East 12.7 mph - N/A   Scattered Clouds
2:53 PM 78.1 °F 66.0 °F 66% 30.08 in 10.0 mi East 13.8 mph - N/A   Scattered Clouds
3:53 PM 78.1 °F 64.9 °F 64% 30.07 in 10.0 mi East 13.8 mph - N/A   Clear
4:53 PM 77.0 °F 66.0 °F 69% 30.07 in 10.0 mi East 16.1 mph - N/A   Clear
5:53 PM 75.0 °F 66.0 °F 73% 30.07 in 10.0 mi East 13.8 mph - N/A   Clear
6:53 PM 73.9 °F 66.0 °F 76% 30.08 in 10.0 mi East 15.0 mph - N/A   Clear
7:53 PM 73.9 °F 66.9 °F 79% 30.08 in 10.0 mi East 15.0 mph - N/A   Clear
8:53 PM 73.9 °F 66.9 °F 79% 30.10 in 10.0 mi ESE 15.0 mph - N/A   Clear
9:53 PM 73.9 °F 66.9 °F 79% 30.10 in 10.0 mi ESE 13.8 mph - N/A   Clear
10:53 PM 73.9 °F 68.0 °F 82% 30.11 in 10.0 mi East 13.8 mph - N/A   Clear
11:53 PM 73.9 °F 69.1 °F 85% 30.11 in 10.0 mi East 10.4 mph - N/A   Clear